Torna al catalogo

TRANSIT 4A

AttivoNavigazioneLEO
NORAD 116·PAYLOAD·🇺🇸 United States

Lanciato Jun 29, 1961 da Cape Canaveral Space Force Station

Loading…

Prossimi Passaggi (prossime 24 ore)

TLE

AggiornatoSource: Space-Track

Epoca: Sep 14, 2026, 07:51 UTC

1 00116U 61015A   26257.32773907  .00000012  00000-0  67501-4 0  9997
2 00116  66.8109  32.6981 0079199 214.6228 144.9681 13.92344137309113

Traccia TRANSIT 4A in tempo reale con AllMySat

Download on the App Store